Find Starlink 30767

NORAD ID: 58126 Int'l Des: 2023-162 Owner: SPXS Country: US Constellation: starlink operational
LEOCIRCULAR

Current View

Loading 3D Globe...

About Starlink 30767

Starlink 30767 (NORAD 58126) is a starlink constellation satellite (v2 mini) launched Oct 22, 2023 by SPXS of US. It operates in LEO, CIRCULAR orbit with a mass of 730.00 kg.

Upcoming Passes

Passes for default location (London). Set your location on the main map for personalized predictions.

Altitude History

Loading altitude history...

Two-Line Element Set

1 58126U 23162J 26263.01055729 .00000241 00000-0 18281-4 0 9995
2 58126 43.0051 111.8586 0001712 271.9338 88.1317 15.27575205162063
Epoch: Sep 20, 2026 • Age: 18 hours

Current Status

Altitude 487.3 km
Apogee / Perigee N/A
Velocity 7.63 km/s
Sub-Earth Point 42.94°N, 77.31°W
Launch Date Oct 22, 2023
Age 2.9 years
Type internet

Technical Details

Classification Payload
Mass 730.00 kg
Dry Mass 700.00 kg
Length 0.30 m
Span 29.00 m
Shape ? Box + pan
Manufacturer SPXS
Bus Type Starlink V2M
Phase Status In Orbit
Owner/State SPXS/US

Most Searched